• In Uzbekistan
  • List of Countries
  • For 7 days
  • Water Temperature
  • Weather Map
  • Weather Widgets
  • user-avatar
    Login

    Hourly Weather Shkoder

    Today, 21 September, Saturday

    Time Temperature Precipitation Wind Pressure Humidity
    00:00 +12°C° 0 mm 4 mps 745 mmHg 46%
    01:00 +11°C° 0 mm 4 mps 745 mmHg 47%
    02:00 +11°C° 0 mm 4 mps 745 mmHg 48%
    03:00 +10°C° 0 mm 4 mps 745 mmHg 50%
    04:00 +10°C° 0 mm 4 mps 745 mmHg 51%
    05:00 +11°C° 0 mm 4 mps 745 mmHg 49%
    06:00 +12°C° 0 mm 4 mps 745 mmHg 46%
    07:00 +13°C° 0 mm 3 mps 745 mmHg 44%
    08:00 +16°C° 0 mm 3 mps 745 mmHg 38%
    09:00 +18°C° 0 mm 3 mps 745 mmHg 32%
    10:00 +21°C° 0 mm 2 mps 745 mmHg 26%
    11:00 +23°C° 0 mm 2 mps 745 mmHg 25%
    12:00 +24°C° 0 mm 2 mps 745 mmHg 23%
    13:00 +25°C° 0 mm 2 mps 745 mmHg 21%
    14:00 +25°C° 0 mm 2 mps 744 mmHg 22%
    15:00 +25°C° 0 mm 2 mps 744 mmHg 23%
    16:00 +25°C° 0 mm 2 mps 744 mmHg 24%
    17:00 +23°C° 0 mm 2 mps 744 mmHg 28%
    18:00 +19°C° 0 mm 2 mps 744 mmHg 32%
    19:00 +17°C° 0 mm 2 mps 744 mmHg 35%
    20:00 +17°C° 0 mm 2 mps 744 mmHg 34%
    21:00 +16°C° 0 mm 2 mps 744 mmHg 34%
    22:00 +16°C° 0 mm 1 mps 745 mmHg 33%
    23:00 +16°C° 0 mm 1 mps 744 mmHg 33%

    Tomorrow, 22 September, Sunday

    Time Temperature Precipitation Wind Pressure Humidity
    00:00 +15°C° 0 mm 1 mps 744 mmHg 33%
    01:00 +15°C° 0 mm 1 mps 744 mmHg 33%
    02:00 +15°C° 0 mm 1 mps 744 mmHg 35%
    03:00 +15°C° 0 mm 1 mps 744 mmHg 36%
    04:00 +14°C° 0 mm 1 mps 744 mmHg 38%
    05:00 +16°C° 0 mm 1 mps 744 mmHg 37%
    06:00 +18°C° 0 mm 1 mps 744 mmHg 37%
    07:00 +19°C° 0 mm 1 mps 744 mmHg 36%
    08:00 +21°C° 0 mm 1 mps 744 mmHg 33%
    09:00 +23°C° 0 mm 1 mps 743 mmHg 30%
    10:00 +25°C° 0 mm 1 mps 743 mmHg 28%
    11:00 +26°C° 0 mm 2 mps 743 mmHg 28%
    12:00 +26°C° 0 mm 2 mps 742 mmHg 28%
    13:00 +27°C° 0 mm 3 mps 742 mmHg 29%
    14:00 +26°C° 0 mm 3 mps 742 mmHg 32%
    15:00 +25°C° 0 mm 3 mps 741 mmHg 36%
    16:00 +25°C° 0 mm 3 mps 741 mmHg 39%
    17:00 +23°C° 0 mm 2 mps 741 mmHg 46%
    18:00 +21°C° 0 mm 1 mps 742 mmHg 53%
    19:00 +19°C° 0 mm 1 mps 742 mmHg 61%
    20:00 +19°C° 0 mm 1 mps 742 mmHg 60%
    21:00 +19°C° 0 mm 1 mps 742 mmHg 60%
    22:00 +18°C° 0 mm 1 mps 741 mmHg 59%
    23:00 +19°C° 0 mm 1 mps 741 mmHg 58%

    Day after tomorrow, 23 September, Monday

    Time Temperature Precipitation Wind Pressure Humidity
    00:00 +19°C° 0 mm 1 mps 741 mmHg 56%
    01:00 +19°C° 0 mm 1 mps 741 mmHg 54%
    02:00 +19°C° 0 mm 1 mps 741 mmHg 56%
    03:00 +19°C° 0 mm 1 mps 741 mmHg 58%
    04:00 +18°C° 0 mm 1 mps 741 mmHg 59%
    05:00 +19°C° 0 mm 1 mps 741 mmHg 57%
    06:00 +20°C° 0 mm 1 mps 741 mmHg 54%
    07:00 +21°C° 0 mm 1 mps 741 mmHg 52%
    08:00 +22°C° 0 mm 1 mps 741 mmHg 51%
    09:00 +23°C° 0 mm 1 mps 741 mmHg 49%
    10:00 +24°C° 0 mm 1 mps 741 mmHg 48%
    11:00 +25°C° 0 mm 2 mps 740 mmHg 48%
    12:00 +26°C° 0 mm 2 mps 740 mmHg 47%
    13:00 +27°C° 0 mm 2 mps 739 mmHg 46%
    14:00 +27°C° 0 mm 2 mps 739 mmHg 49%
    15:00 +26°C° 0 mm 2 mps 739 mmHg 53%
    16:00 +26°C° 0 mm 2 mps 738 mmHg 56%
    17:00 +24°C° 0 mm 2 mps 738 mmHg 63%
    18:00 +23°C° 0 mm 1 mps 738 mmHg 71%
    19:00 +21°C° 0 mm 1 mps 738 mmHg 79%
    20:00 +21°C° 0.3 mm 1 mps 738 mmHg 79%
    21:00 +21°C° 0.3 mm 1 mps 738 mmHg 79%
    22:00 +21°C° 0.3 mm 1 mps 738 mmHg 80%
    23:00 +20°C° 2 mm 1 mps 738 mmHg 84%

    24 September, Tuesday

    Time Temperature Precipitation Wind Pressure Humidity
    00:00 +20°C° 2 mm 1 mps 738 mmHg 87%
    01:00 +20°C° 2 mm 1 mps 737 mmHg 91%
    02:00 +20°C° 2.8 mm 1 mps 737 mmHg 92%
    03:00 +20°C° 2.8 mm 1 mps 737 mmHg 92%
    04:00 +20°C° 2.8 mm 1 mps 736 mmHg 93%
    05:00 +21°C° 1.1 mm 1 mps 736 mmHg 91%
    06:00 +21°C° 1.1 mm 1 mps 736 mmHg 90%
    07:00 +21°C° 1.1 mm 1 mps 736 mmHg 88%
    08:00 +22°C° 0.6 mm 1 mps 736 mmHg 84%
    09:00 +23°C° 0.6 mm 1 mps 736 mmHg 80%
    10:00 +25°C° 0.6 mm 1 mps 736 mmHg 76%
    11:00 +25°C° 0.9 mm 2 mps 736 mmHg 74%
    12:00 +25°C° 0.9 mm 2 mps 736 mmHg 72%
    13:00 +26°C° 0.9 mm 2 mps 735 mmHg 70%
    14:00 +25°C° 0.8 mm 2 mps 735 mmHg 73%
    15:00 +25°C° 0.8 mm 2 mps 735 mmHg 75%
    16:00 +24°C° 0.8 mm 2 mps 735 mmHg 77%
    17:00 +23°C° 0.4 mm 2 mps 735 mmHg 81%
    18:00 +22°C° 0.4 mm 1 mps 736 mmHg 85%
    19:00 +21°C° 0.4 mm 1 mps 736 mmHg 89%
    20:00 +20°C° 0 mm 1 mps 736 mmHg 89%
    21:00 +20°C° 0 mm 1 mps 736 mmHg 90%
    22:00 +18°C° 0 mm 2 mps 737 mmHg 90%
    23:00 +18°C° 0 mm 2 mps 737 mmHg 89%

    25 September, Wednesday

    Time Temperature Precipitation Wind Pressure Humidity
    00:00 +18°C° 0 mm 2 mps 737 mmHg 87%
    01:00 +18°C° 0 mm 2 mps 736 mmHg 86%
    02:00 +17°C° 0 mm 2 mps 736 mmHg 85%
    03:00 +17°C° 0 mm 2 mps 736 mmHg 85%
    04:00 +17°C° 0 mm 2 mps 736 mmHg 85%
    05:00 +18°C° 0 mm 1 mps 736 mmHg 83%
    06:00 +19°C° 0 mm 1 mps 736 mmHg 81%
    07:00 +19°C° 0 mm 1 mps 736 mmHg 79%
    08:00 +21°C° 0 mm 1 mps 737 mmHg 73%
    09:00 +22°C° 0 mm 1 mps 737 mmHg 67%
    10:00 +24°C° 0 mm 1 mps 737 mmHg 61%
    11:00 +25°C° 0 mm 1 mps 736 mmHg 58%
    12:00 +25°C° 0 mm 2 mps 736 mmHg 55%
    13:00 +26°C° 0 mm 2 mps 736 mmHg 53%
    14:00 +25°C° 0 mm 2 mps 736 mmHg 56%
    15:00 +25°C° 0 mm 2 mps 735 mmHg 59%
    16:00 +24°C° 0 mm 2 mps 735 mmHg 62%
    17:00 +23°C° 0 mm 2 mps 735 mmHg 71%
    18:00 +21°C° 0 mm 1 mps 736 mmHg 80%
    19:00 +19°C° 0 mm 1 mps 736 mmHg 89%
    20:00 +19°C° 0 mm 1 mps 736 mmHg 87%
    21:00 +19°C° 0 mm 1 mps 736 mmHg 84%
    22:00 +19°C° 0 mm 1 mps 736 mmHg 82%
    23:00 +19°C° 0 mm 1 mps 736 mmHg 82%

    26 September, Thursday

    Time Temperature Precipitation Wind Pressure Humidity
    00:00 +19°C° 0 mm 1 mps 736 mmHg 82%
    01:00 +19°C° 0 mm 1 mps 736 mmHg 82%
    02:00 +19°C° 0 mm 1 mps 736 mmHg 81%
    03:00 +20°C° 0 mm 1 mps 736 mmHg 79%
    04:00 +20°C° 0 mm 1 mps 736 mmHg 78%
    05:00 +20°C° 0.2 mm 1 mps 736 mmHg 78%
    06:00 +21°C° 0.2 mm 1 mps 735 mmHg 78%
    07:00 +21°C° 0.2 mm 1 mps 735 mmHg 78%
    08:00 +20°C° 0.5 mm 2 mps 735 mmHg 79%
    09:00 +21°C° 0.5 mm 2 mps 736 mmHg 80%
    10:00 +21°C° 0.5 mm 2 mps 736 mmHg 81%
    11:00 +21°C° 1.2 mm 3 mps 736 mmHg 82%
    12:00 +21°C° 1.2 mm 3 mps 735 mmHg 84%
    13:00 +22°C° 1.2 mm 3 mps 735 mmHg 85%
    14:00 +21°C° 1.1 mm 3 mps 735 mmHg 85%
    15:00 +21°C° 1.1 mm 3 mps 735 mmHg 84%
    16:00 +21°C° 1.1 mm 2 mps 735 mmHg 84%
    17:00 +20°C° 0.8 mm 2 mps 736 mmHg 86%
    18:00 +21°C° 0.8 mm 1 mps 736 mmHg 88%
    19:00 +20°C° 0.8 mm 1 mps 737 mmHg 89%
    20:00 +19°C° 0 mm 1 mps 737 mmHg 89%
    21:00 +19°C° 0 mm 1 mps 738 mmHg 89%
    22:00 +19°C° 0 mm 1 mps 738 mmHg 88%
    23:00 +19°C° 0 mm 1 mps 738 mmHg 88%
    Show more